Weather History for EGQK - February, 2014

Change the Weather History Date:

Sunday, February 2, 2014

  Actual Average Record
Temperature  
Mean Temperature 42 °F -  
Max Temperature 47 °F 44 °F 53 °F (1999)
Min Temperature 36 °F 32 °F 15 °F (2006)
Degree Days  
Heating Degree Days 24    
Moisture  
Dew Point 35 °F    
Average Humidity 70    
Maximum Humidity 87    
Minimum Humidity 57    
Precipitation  
Precipitation 0.02 in 0.05 in - ()
Sea Level Pressure  
Sea Level Pressure 29.06 in    
Wind  
Wind Speed 17 mph ()    
Max Wind Speed 28 mph    
Max Gust Speed 40 mph    
Visibility 8.2 miles    
Events Rain    
Averages and records for this station are not official NWS values.
T = Trace of Precipitation, MM = Missing Value Source: Averaged Metar Reports

Daily Weather History Graph

Daily Weather History Graph

Search for Another Location

Airport or City:

Trip Planner

Search our weather history database for the weather conditions in past years. The results will help you decide how hot, cold, wet, or windy it might be!

Date:

Astronomy

Feb. 02, 2014 Rise Set
Actual Time 8:14 AM GMT 4:42 PM GMT
Civil Twilight 7:31 AM GMT 5:25 PM GMT
Nautical Twilight 6:44 AM GMT 6:12 PM GMT
Astronomical Twilight 5:58 AM GMT 6:57 PM GMT
Moon 8:45 AM GMT (2/2) 9:04 PM GMT (2/2)
Length of Visible Light 9h 54m
Length of Day
8h 27m
Waxing Crescent, 10% of the Moon is Illuminated
Feb 2
Waxing Crescent
Feb 6
First Quarter
Feb 14
Full
Feb 22
Last Quarter
Mar 1
New

Hourly Weather History & Observations

Time (GMT) Temp. Windchill Dew Point Humidity Pressure Visibility Wind Dir Wind Speed Gust Speed Precip Events Conditions
12:00 AM 38 °F - 35 °F 85% 28.67 in 34 mi SW 17.3 mph - -   Scattered Clouds
12:50 AM 37.4 °F 29.8 °F 33.8 °F 87% 28.68 in 6.2 mi SW 11.5 mph - N/A   Unknown
1:00 AM 38 °F - 34 °F 81% 28.70 in 37 mi SW 11.5 mph - -  
1:50 AM 39.2 °F 32.0 °F 33.8 °F 81% 28.74 in 6.2 mi SW 11.5 mph - N/A   Partly Cloudy
2:00 AM 38 °F - 35 °F 82% 28.74 in 37 mi SW 11.5 mph - -   Scattered Clouds
2:50 AM 41.0 °F 31.4 °F 35.6 °F 81% 28.74 in 6.2 mi SW 21.9 mph - N/A   Mostly Cloudy
3:00 AM 42 °F - 36 °F 70% 28.76 in 34 mi SW 21.9 mph - -   Mostly Cloudy
3:50 AM 42.8 °F 33.5 °F 35.6 °F 76% 28.77 in 6.2 mi SW 23.0 mph - N/A   Partly Cloudy
4:00 AM 42 °F - 35 °F 68% 28.79 in 19 mi SW 23.0 mph - -   Scattered Clouds
4:50 AM 42.8 °F 33.5 °F 33.8 °F 70% 28.80 in 6.2 mi SSW 23.0 mph 36.8 mph N/A   Unknown
5:00 AM 43 °F - 33 °F 59% 28.82 in 19 mi SSW 23.0 mph - -  
5:50 AM 42.8 °F 34.8 °F 33.8 °F 70% 28.82 in 6.2 mi SSW 17.3 mph - N/A   Scattered Clouds
6:00 AM 42 °F - 33 °F 62% 28.84 in 31 mi SSW 17.3 mph - -  
6:50 AM 42.8 °F 32.9 °F 33.8 °F 70% 28.85 in 6.2 mi SSW 26.5 mph - N/A   Scattered Clouds
7:00 AM 42 °F - 34 °F 66% 28.86 in 37 mi SSW 26.5 mph - -   Scattered Clouds
7:50 AM 41.0 °F 31.6 °F 35.6 °F 81% 28.88 in 6.2 mi SSW 20.7 mph - N/A   Partly Cloudy
8:00 AM 41 °F - 35 °F 71% 28.89 in 37 mi SSW 20.7 mph - -   Scattered Clouds
8:50 AM 42.8 °F 33.1 °F 35.6 °F 76% 28.91 in 6.2 mi SSW 25.3 mph 40.3 mph N/A Rain Light Rain Showers
9:00 AM 42 °F - 36 °F 72% 28.92 in 15 mi SSW 25.3 mph - - Rain Light Rain Showers
9:50 AM 44.6 °F 36.1 °F 37.4 °F 76% 28.94 in 6.2 mi SW 21.9 mph 36.8 mph N/A   Partly Cloudy
10:00 AM 45 °F - 37 °F 64% 28.96 in 34 mi SW 21.9 mph - - Rain Rain
10:50 AM 46.4 °F 37.9 °F 37.4 °F 71% 29.00 in 6.2 mi SW 25.3 mph - N/A   Partly Cloudy
11:00 AM 46 °F - 37 °F 62% 29.03 in 22 mi SW 25.3 mph - -   Scattered Clouds
11:50 AM 46.4 °F 38.3 °F 37.4 °F 71% 29.06 in 6.2 mi SW 23.0 mph 35.7 mph N/A   Partly Cloudy
12:00 PM 46 °F - 38 °F 63% 29.07 in 22 mi SW 23.0 mph - - Rain Rain
12:50 PM 46.4 °F 38.1 °F 35.6 °F 66% 29.09 in 6.2 mi SW 24.2 mph 38.0 mph N/A   Partly Cloudy
1:00 PM 46 °F - 36 °F 59% 29.11 in 31 mi SW 24.2 mph - -   Scattered Clouds
1:50 PM 44.6 °F 35.1 °F 35.6 °F 71% 29.15 in 6.2 mi SW 27.6 mph - N/A   Scattered Clouds
2:00 PM 45 °F - 36 °F 60% 29.15 in 31 mi SW 27.6 mph - -   Partly Cloudy
2:50 PM 46.4 °F 39.0 °F 35.6 °F 66% 29.18 in 6.2 mi SW 19.6 mph 31.1 mph N/A   Mostly Cloudy
3:00 PM 46 °F - 36 °F 57% 29.20 in 28 mi SW 19.6 mph - - Rain Rain
3:50 PM 44.6 °F 37.8 °F 35.6 °F 71% 29.24 in 6.2 mi SW 15.0 mph - N/A   Scattered Clouds
4:00 PM 44 °F - 35 °F 61% 29.24 in 19 mi SW 15.0 mph - -   Partly Cloudy
4:50 PM 42.8 °F 35.4 °F 35.6 °F 76% 29.27 in 6.2 mi SSW 15.0 mph - N/A Rain Light Rain Showers
5:00 PM 43 °F - 35 °F 63% 29.27 in 17 mi SSW 15.0 mph - - Rain Light Rain Showers
5:50 PM 42.8 °F 34.0 °F 33.8 °F 70% 29.30 in 6.2 mi SW 20.7 mph 32.2 mph N/A   Unknown
6:00 PM 43 °F - 34 °F 61% 29.30 in 22 mi SW 20.7 mph - - Rain Rain
6:50 PM 41.0 °F 33.5 °F 33.8 °F 76% 29.33 in 6.2 mi SSW 13.8 mph - N/A   Unknown
7:00 PM 42 °F - 33 °F 61% 29.34 in 25 mi SSW 13.8 mph - -  
7:50 PM 41.0 °F 35.2 °F 33.8 °F 76% 29.36 in 6.2 mi SSW 9.2 mph - N/A   Unknown
8:00 PM 41 °F - 34 °F 66% 29.37 in 25 mi SSW 9.2 mph - -  
8:50 PM 42.8 °F 37.0 °F 33.8 °F 70% 29.39 in 6.2 mi South 10.4 mph - N/A   Unknown
9:00 PM 42 °F - 34 °F 63% 29.39 in 22 mi South 10.4 mph - -  
9:50 PM 42.8 °F 35.4 °F 33.8 °F 70% 29.39 in 6.2 mi South 15.0 mph - N/A   Partly Cloudy
10:00 PM 43 °F - 33 °F 58% 29.39 in 22 mi South 15.0 mph - -   Scattered Clouds
10:50 PM 41.0 °F 35.2 °F 33.8 °F 76% 29.42 in 6.2 mi SE 9.2 mph 23.0 mph N/A   Scattered Clouds
11:00 PM 41 °F - 34 °F 66% 29.42 in 44 mi SE 9.2 mph - -   Partly Cloudy
11:50 PM 39.2 °F 33.0 °F 33.8 °F 81% 29.39 in 6.2 mi East 9.2 mph - N/A   Partly Cloudy